SES-12

Last updated on Sun Jun 21 2026 00:03:07 GMT+0000 (Coordinated Universal Time)

1 43488U 18049A 26171.33948226 -.00000274 00000+0 00000+0 0 9995 2 43488 0.0148 14.7336 0000672 264.4074 206.6153 1.00269236 29450
UTC large
Height (km)
Speed (km/s)
/
Latitude / Longitude
Inclination (degrees)
Orbital Period (minutes)
Azimuth
Elevation
Range (km)
Doppler Factor

Next 0 passes for location: London (51.5072 / 0.1276)

No passes found over London.
SES-12